| time (UTC) | temp C | wind direction | speed KPH | gust KPH | rain 1hr cm | rain 24hr cm | rain mn cm | humidity % | barometer mb |
| 20260506205104 | 15 | 339 | 1.6 | 4.8 | 0.00 | 1.78 | 1.04 | 56 | 1013.9 |
| 20260506204605 | 15 | 3 | 1.6 | 4.8 | 0.00 | 1.78 | 1.04 | 56 | 1013.9 |
| 20260506204106 | 15 | 51 | 1.6 | 8.0 | 0.00 | 1.78 | 1.04 | 56 | 1013.8 |
| 20260506203604 | 15 | 59 | 0.0 | 9.7 | 0.00 | 1.78 | 1.04 | 56 | 1013.5 |
| 20260506202604 | 15 | 19 | 3.2 | 4.8 | 0.00 | 1.78 | 1.04 | 56 | 1013.5 |
| 20260506202105 | 15 | 353 | 1.6 | 4.8 | 0.00 | 1.78 | 1.04 | 56 | 1013.6 |
| 20260506201604 | 15 | 358 | 3.2 | 12.9 | 0.00 | 1.78 | 1.04 | 56 | 1013.6 |
| 20260506201105 | 15 | 36 | 1.6 | 4.8 | 0.00 | 1.78 | 1.04 | 55 | 1013.5 |
| 20260506200105 | 15 | 123 | 1.6 | 8.0 | 0.00 | 1.78 | 1.04 | 55 | 1013.6 |
| 20260506195604 | 15 | 25 | 1.6 | 4.8 | 0.00 | 1.78 | 1.04 | 53 | 1013.6 |
| 20260506195105 | 16 | 348 | 1.6 | 4.8 | 0.00 | 1.78 | 1.04 | 53 | 1013.6 |
| 20260506194604 | 16 | 321 | 0.0 | 4.8 | 0.00 | 1.78 | 1.04 | 54 | 1013.5 |
| 20260506193604 | 15 | 334 | 3.2 | 11.3 | 0.00 | 1.78 | 1.04 | 53 | 1013.4 |
| 20260506193104 | 16 | 28 | 3.2 | 4.8 | 0.00 | 1.78 | 1.04 | 52 | 1013.5 |
| 20260506192604 | 15 | 3 | 0.0 | 4.8 | 0.00 | 1.78 | 1.04 | 53 | 1013.4 |
| 20260506192104 | 15 | 281 | 3.2 | 4.8 | 0.00 | 1.78 | 1.04 | 52 | 1013.5 |
| 20260506191104 | 15 | 269 | 0.0 | 4.8 | 0.00 | 1.78 | 1.04 | 54 | 1013.5 |
| 20260506190604 | 15 | 46 | 1.6 | 8.0 | 0.00 | 1.78 | 1.04 | 55 | 1013.4 |
| 20260506185105 | 15 | 10 | 1.6 | 3.2 | 0.00 | 1.78 | 1.04 | 55 | 1013.7 |
| 20260506184106 | 15 | 357 | 3.2 | 14.5 | 0.00 | 1.78 | 1.04 | 56 | 1013.7 |
| 20260506182604 | 15 | 340 | 0.0 | 4.8 | 0.00 | 1.78 | 1.04 | 58 | 1013.7 |
| 20260506182105 | 15 | 356 | 1.6 | 4.8 | 0.00 | 1.78 | 1.04 | 59 | 1013.7 |
| 20260506181605 | 15 | 289 | 0.0 | 3.2 | 0.00 | 1.78 | 1.04 | 57 | 1013.7 |
| 20260506181105 | 15 | 263 | 0.0 | 4.8 | 0.00 | 1.78 | 1.04 | 56 | 1013.7 |
| 20260506180605 | 15 | 309 | 0.0 | 4.8 | 0.00 | 1.78 | 1.04 | 57 | 1013.7 |
| 20260506180104 | 15 | 256 | 1.6 | 8.0 | 0.00 | 1.78 | 1.04 | 58 | 1013.9 |
| 20260506175605 | 15 | 5 | 1.6 | 4.8 | 0.00 | 1.78 | 1.04 | 59 | 1013.8 |
| 20260506175105 | 15 | 64 | 1.6 | 4.8 | 0.00 | 1.78 | 1.04 | 59 | 1013.8 |
| 20260506174605 | 15 | 99 | 1.6 | 4.8 | 0.00 | 1.78 | 1.04 | 58 | 1013.8 |
| 20260506174104 | 15 | 25 | 3.2 | 9.7 | 0.00 | 1.78 | 1.04 | 55 | 1013.8 |
| 20260506173604 | 15 | 356 | 3.2 | 4.8 | 0.00 | 1.78 | 1.04 | 59 | 1014.0 |
| 20260506173105 | 14 | 28 | 1.6 | 4.8 | 0.00 | 1.78 | 1.04 | 60 | 1014.0 |
| 20260506172604 | 14 | 340 | 1.6 | 12.9 | 0.00 | 1.78 | 1.04 | 63 | 1013.8 |
| 20260506172104 | 14 | 346 | 1.6 | 8.0 | 0.00 | 1.78 | 1.04 | 61 | 1013.8 |
| 20260506171604 | 14 | 309 | 1.6 | 4.8 | 0.00 | 1.78 | 1.04 | 64 | 1013.7 |
| 20260506171105 | 13 | 3 | 1.6 | 4.8 | 0.00 | 1.78 | 1.04 | 62 | 1013.6 |
| 20260506170605 | 13 | 259 | 1.6 | 4.8 | 0.00 | 1.78 | 1.04 | 61 | 1013.7 |
| 20260506170105 | 14 | 29 | 1.6 | 8.0 | 0.00 | 1.78 | 1.04 | 62 | 1013.9 |
| 20260506165605 | 14 | 309 | 1.6 | 4.8 | 0.00 | 1.78 | 1.04 | 62 | 1014.2 |
| 20260506164104 | 13 | 5 | 1.6 | 4.8 | 0.00 | 1.78 | 1.04 | 68 | 1013.9 |
| 20260506163604 | 13 | 5 | 0.0 | 4.8 | 0.00 | 1.78 | 1.04 | 67 | 1013.8 |
| 20260506163105 | 13 | 348 | 3.2 | 11.3 | 0.00 | 1.78 | 1.04 | 71 | 1013.7 |
| 20260506162604 | 13 | 232 | 1.6 | 3.2 | 0.00 | 1.78 | 1.04 | 69 | 1013.7 |
| 20260506162105 | 12 | 223 | 3.2 | 8.0 | 0.00 | 1.78 | 1.04 | 69 | 1013.9 |
| 20260506161605 | 12 | 317 | 0.0 | 4.8 | 0.00 | 1.78 | 1.04 | 74 | 1013.8 |
| 20260506161105 | 12 | 19 | 1.6 | 4.8 | 0.00 | 1.78 | 1.04 | 75 | 1013.8 |
| 20260506160104 | 12 | 8 | 0.0 | 1.6 | 0.00 | 1.78 | 1.04 | 79 | 1013.8 |
| 20260506155604 | 11 | 8 | 1.6 | 3.2 | 0.00 | 1.78 | 1.04 | 77 | 1013.7 |
| 20260506155105 | 11 | 282 | 0.0 | 3.2 | 0.00 | 1.78 | 1.04 | 78 | 1013.8 |
| 20260506154605 | 11 | 247 | 1.6 | 4.8 | 0.00 | 1.78 | 1.04 | 80 | 1013.6 |
| 20260506153605 | 11 | 349 | 0.0 | 3.2 | 0.00 | 1.78 | 1.04 | 80 | 1013.5 |
| 20260506153105 | 10 | 15 | 1.6 | 8.0 | 0.00 | 1.78 | 1.04 | 78 | 1013.6 |
| 20260506152604 | 10 | 98 | 0.0 | 1.6 | 0.00 | 1.78 | 1.04 | 79 | 1013.5 |
| 20260506150604 | 10 | 45 | 0.0 | 4.8 | 0.00 | 1.78 | 1.04 | 83 | 1013.6 |
| 20260506145604 | 9 | 249 | 1.6 | 9.7 | 0.00 | 1.78 | 1.04 | 84 | 1013.3 |
| 20260506145104 | 9 | 8 | 1.6 | 9.7 | 0.00 | 1.78 | 1.04 | 86 | 1013.3 |
| 20260506144604 | 9 | 317 | 1.6 | 3.2 | 0.00 | 1.78 | 1.04 | 88 | 1013.1 |
| 20260506144104 | 9 | 355 | 0.0 | 3.2 | 0.00 | 1.78 | 1.04 | 89 | 1013.0 |
| 20260506143605 | 8 | 345 | 1.6 | 4.8 | 0.00 | 1.78 | 1.04 | 89 | 1012.8 |
| 20260506143105 | 8 | 0 | 1.6 | 4.8 | 0.00 | 1.78 | 1.04 | 90 | 1012.7 |
| 20260506142604 | 8 | 350 | 0.0 | 4.8 | 0.00 | 1.78 | 1.04 | 90 | 1012.9 |
| 20260506142105 | 8 | 16 | 1.6 | 8.0 | 0.00 | 1.78 | 1.04 | 90 | 1012.9 |
| 20260506141604 | 8 | 334 | 1.6 | 4.8 | 0.00 | 1.78 | 1.04 | 91 | 1012.8 |
| 20260506141105 | 8 | 66 | 1.6 | 4.8 | 0.00 | 1.78 | 1.04 | 91 | 1012.8 |
| 20260506140605 | 8 | 5 | 0.0 | 3.2 | 0.00 | 1.78 | 1.04 | 92 | 1012.5 |
| 20260506140104 | 8 | 12 | 1.6 | 4.8 | 0.00 | 1.78 | 1.04 | 91 | 1012.5 |
| 20260506135604 | 8 | 7 | 3.2 | 8.0 | 0.00 | 1.78 | 1.04 | 92 | 1012.5 |
| 20260506135105 | 8 | 233 | 0.0 | 4.8 | 0.00 | 1.78 | 1.04 | 92 | 1012.4 |
| 20260506134604 | 8 | 310 | 1.6 | 4.8 | 0.00 | 1.78 | 1.04 | 92 | 1012.2 |
| 20260506134105 | 8 | 6 | 0.0 | 4.8 | 0.00 | 1.78 | 1.04 | 93 | 1012.4 |
| 20260506133604 | 8 | 9 | 1.6 | 3.2 | 0.00 | 1.78 | 1.04 | 93 | 1012.3 |
| 20260506133105 | 8 | 325 | 0.0 | 4.8 | 0.00 | 1.78 | 1.04 | 92 | 1012.2 |
| 20260506132604 | 8 | 355 | 1.6 | 3.2 | 0.00 | 1.78 | 1.04 | 93 | 1012.1 |
| 20260506131104 | 8 | 355 | 0.0 | 1.6 | 0.00 | 1.78 | 1.04 | 93 | 1012.2 |
| 20260506130605 | 8 | 355 | 0.0 | 3.2 | 0.00 | 1.78 | 1.04 | 93 | 1012.3 |
| 20260506125604 | 8 | 350 | 0.0 | 3.2 | 0.00 | 1.78 | 1.04 | 93 | 1011.8 |
| 20260506125104 | 8 | 287 | 0.0 | 3.2 | 0.00 | 1.78 | 1.04 | 93 | 1011.4 |
| 20260506124604 | 8 | 254 | 1.6 | 4.8 | 0.00 | 1.78 | 1.04 | 93 | 1011.4 |
| 20260506124105 | 7 | 248 | 0.0 | 0.0 | 0.00 | 1.78 | 1.04 | 93 | 1011.6 |
| 20260506123604 | 7 | 248 | 0.0 | 0.0 | 0.00 | 1.78 | 1.04 | 93 | 1011.7 |
| 20260506123104 | 7 | 248 | 0.0 | 3.2 | 0.00 | 1.78 | 1.04 | 93 | 1011.8 |
| 20260506122604 | 7 | 5 | 0.0 | 1.6 | 0.00 | 1.78 | 1.04 | 93 | 1011.6 |
| 20260506122105 | 7 | 5 | 0.0 | 3.2 | 0.00 | 1.78 | 1.04 | 93 | 1011.5 |
| 20260506121604 | 7 | 5 | 0.0 | 3.2 | 0.00 | 1.78 | 1.04 | 93 | 1011.2 |
| 20260506121104 | 7 | 10 | 1.6 | 3.2 | 0.00 | 1.78 | 1.04 | 93 | 1011.1 |
| 20260506120604 | 7 | 15 | 0.0 | 1.6 | 0.03 | 1.78 | 1.04 | 93 | 1011.2 |
| 20260506120105 | 7 | 12 | 0.0 | 3.2 | 0.03 | 1.78 | 1.04 | 93 | 1011.4 |
| 20260506115604 | 7 | 30 | 0.0 | 0.0 | 0.05 | 1.78 | 1.04 | 93 | 1011.4 |
| 20260506115104 | 7 | 30 | 0.0 | 1.6 | 0.05 | 1.78 | 1.04 | 92 | 1011.2 |
| 20260506114604 | 7 | 31 | 1.6 | 3.2 | 0.08 | 1.78 | 1.04 | 93 | 1011.0 |
| 20260506113605 | 7 | 261 | 0.0 | 4.8 | 0.08 | 1.78 | 1.04 | 92 | 1011.1 |
| 20260506112104 | 7 | 267 | 0.0 | 3.2 | 0.08 | 1.78 | 1.04 | 92 | 1010.2 |
| 20260506111604 | 7 | 328 | 0.0 | 1.6 | 0.08 | 1.78 | 1.04 | 92 | 1010.2 |
| 20260506111104 | 7 | 318 | 1.6 | 4.8 | 0.08 | 1.78 | 1.04 | 92 | 1010.3 |
| 20260506110104 | 7 | 16 | 0.0 | 3.2 | 0.05 | 1.75 | 1.02 | 92 | 1010.8 |
| 20260506105604 | 7 | 261 | 0.0 | 4.8 | 0.03 | 1.73 | 0.99 | 92 | 1010.7 |
| 20260506105104 | 7 | 0 | 1.6 | 3.2 | 0.03 | 1.73 | 0.99 | 92 | 1010.6 |
| 20260506104604 | 7 | 355 | 1.6 | 4.8 | 0.00 | 1.70 | 0.97 | 92 | 1010.2 |
| 20260506104104 | 7 | 276 | 0.0 | 0.0 | 0.00 | 1.70 | 0.97 | 92 | 1010.1 |
| 20260506103605 | 7 | 276 | 0.0 | 0.0 | 0.00 | 1.70 | 0.97 | 92 | 1009.9 |
| 20260506102605 | 7 | 268 | 1.6 | 4.8 | 0.00 | 1.70 | 0.97 | 92 | 1009.9 |
| 20260506102104 | 7 | 21 | 0.0 | 0.0 | 0.00 | 1.70 | 0.97 | 92 | 1009.3 |
| 20260506101604 | 7 | 20 | 0.0 | 0.0 | 0.03 | 1.70 | 0.97 | 92 | 1009.1 |
| 20260506101105 | 7 | 20 | 0.0 | 0.0 | 0.03 | 1.70 | 0.97 | 92 | 1008.7 |
| 20260506100605 | 7 | 20 | 0.0 | 0.0 | 0.05 | 1.70 | 0.97 | 92 | 1009.1 |
| 20260506100104 | 7 | 20 | 0.0 | 3.2 | 0.05 | 1.70 | 0.97 | 92 | 1009.0 |
| 20260506095604 | 8 | 59 | 0.0 | 4.8 | 0.08 | 1.70 | 0.97 | 92 | 1009.4 |
| 20260506095104 | 8 | 10 | 0.0 | 4.8 | 0.08 | 1.70 | 0.97 | 92 | 1009.6 |
| 20260506094604 | 8 | 29 | 0.0 | 3.2 | 0.13 | 1.70 | 0.97 | 92 | 1009.3 |
| 20260506093604 | 8 | 30 | 1.6 | 3.2 | 0.18 | 1.70 | 0.97 | 92 | 1009.5 |
| 20260506093104 | 8 | 28 | 1.6 | 3.2 | 0.18 | 1.70 | 0.97 | 92 | 1009.4 |
| 20260506092604 | 8 | 271 | 1.6 | 4.8 | 0.23 | 1.70 | 0.97 | 92 | 1009.1 |
| 20260506092104 | 8 | 17 | 0.0 | 4.8 | 0.23 | 1.70 | 0.97 | 92 | 1009.1 |
| 20260506091605 | 8 | 42 | 1.6 | 4.8 | 0.20 | 1.68 | 0.94 | 91 | 1009.0 |
| 20260506091104 | 8 | 263 | 1.6 | 4.8 | 0.23 | 1.68 | 0.94 | 92 | 1009.2 |
| 20260506090604 | 8 | 53 | 1.6 | 4.8 | 0.20 | 1.65 | 0.91 | 92 | 1009.4 |
| 20260506090104 | 9 | 243 | 1.6 | 4.8 | 0.20 | 1.65 | 0.91 | 92 | 1009.5 |
| 20260506085604 | 9 | 250 | 1.6 | 4.8 | 0.18 | 1.63 | 0.89 | 92 | 1009.5 |
| 20260506085104 | 9 | 257 | 1.6 | 4.8 | 0.18 | 1.63 | 0.89 | 92 | 1009.2 |
| 20260506084604 | 9 | 269 | 1.6 | 9.7 | 0.13 | 1.57 | 0.84 | 92 | 1009.1 |
| 20260506084104 | 9 | 327 | 1.6 | 8.0 | 0.10 | 1.55 | 0.81 | 92 | 1009.0 |
| 20260506083604 | 10 | 278 | 1.6 | 3.2 | 0.10 | 1.52 | 0.79 | 92 | 1009.0 |
| 20260506083104 | 10 | 29 | 1.6 | 4.8 | 0.13 | 1.52 | 0.79 | 92 | 1009.1 |
| 20260506082105 | 10 | 35 | 0.0 | 4.8 | 0.13 | 1.47 | 0.74 | 92 | 1009.0 |
| 20260506081106 | 10 | 39 | 0.0 | 4.8 | 0.20 | 1.45 | 0.71 | 92 | 1008.5 |
| 20260506080604 | 10 | 46 | 0.0 | 1.6 | 0.23 | 1.45 | 0.71 | 92 | 1008.5 |
| 20260506080104 | 10 | 246 | 0.0 | 3.2 | 0.25 | 1.45 | 0.71 | 92 | 1008.3 |
| 20260506072604 | 11 | 274 | 0.0 | 4.8 | 0.33 | 1.37 | 0.64 | 92 | 1008.1 |
| 20260506072105 | 11 | 30 | 1.6 | 4.8 | 0.36 | 1.35 | 0.61 | 92 | 1008.1 |
| 20260506071604 | 11 | 291 | 0.0 | 4.8 | 0.38 | 1.32 | 0.58 | 92 | 1008.1 |
| 20260506071104 | 11 | 333 | 1.6 | 4.8 | 0.33 | 1.24 | 0.51 | 93 | 1008.2 |
| 20260506070605 | 11 | 48 | 0.0 | 3.2 | 0.33 | 1.22 | 0.48 | 93 | 1007.9 |
| 20260506070104 | 11 | 50 | 0.0 | 1.6 | 0.33 | 1.19 | 0.46 | 93 | 1007.9 |
| 20260506062105 | 12 | 17 | 1.6 | 4.8 | 0.20 | 0.99 | 0.25 | 92 | 1007.9 |
| 20260506061604 | 12 | 275 | 0.0 | 4.8 | 0.15 | 0.94 | 0.20 | 91 | 1008.0 |
| 20260506061104 | 12 | 6 | 0.0 | 4.8 | 0.13 | 0.91 | 0.18 | 92 | 1008.1 |
| 20260506060604 | 13 | 5 | 0.0 | 1.6 | 0.10 | 0.89 | 0.15 | 91 | 1007.9 |
| 20260506060105 | 13 | 5 | 0.0 | 3.2 | 0.08 | 0.86 | 0.13 | 91 | 1008.1 |
| 20260506051105 | 14 | 227 | 0.0 | 0.0 | 0.03 | 0.79 | 0.05 | 93 | 1008.7 |
| 20260506050604 | 14 | 227 | 0.0 | 0.0 | 0.05 | 0.79 | 0.05 | 93 | 1008.8 |
| 20260506050104 | 14 | 227 | 0.0 | 0.0 | 0.05 | 0.79 | 0.05 | 93 | 1008.7 |
| 20260506045105 | 14 | 227 | 0.0 | 0.0 | 0.08 | 0.79 | 0.05 | 93 | 1008.9 |
| 20260506044604 | 14 | 227 | 0.0 | 0.0 | 0.10 | 0.79 | 0.05 | 93 | 1009.0 |
| 20260506044105 | 14 | 227 | 0.0 | 0.0 | 0.13 | 0.79 | 0.05 | 93 | 1009.0 |
| 20260506043604 | 14 | 227 | 0.0 | 0.0 | 0.15 | 0.79 | 0.05 | 93 | 1009.0 |
| 20260506042104 | 14 | 227 | 0.0 | 0.0 | 0.23 | 0.79 | 0.05 | 93 | 1009.1 |
| 20260506041605 | 14 | 229 | 0.0 | 0.0 | 0.20 | 0.76 | 0.03 | 93 | 1009.2 |
| 20260506041104 | 14 | 229 | 0.0 | 0.0 | 0.23 | 0.76 | 0.03 | 93 | 1009.3 |
| 20260506040604 | 14 | 229 | 0.0 | 0.0 | 0.23 | 0.74 | 0.00 | 92 | 1009.3 |
| 20260506040104 | 14 | 229 | 0.0 | 0.0 | 0.25 | 0.74 | 0.00 | 92 | 1009.4 |
| 20260506035604 | 14 | 229 | 0.0 | 0.0 | 0.25 | 0.74 | 0.74 | 92 | 1009.5 |
| 20260506034605 | 15 | 229 | 0.0 | 0.0 | 0.25 | 0.69 | 0.69 | 92 | 1009.6 |
| 20260506034104 | 15 | 229 | 0.0 | 0.0 | 0.25 | 0.66 | 0.66 | 92 | 1009.7 |
| 20260506033104 | 15 | 229 | 0.0 | 0.0 | 0.23 | 0.61 | 0.61 | 92 | 1009.7 |
| 20260506032604 | 15 | 229 | 0.0 | 3.2 | 0.20 | 0.58 | 0.58 | 92 | 1009.8 |
| 20260506032104 | 15 | 229 | 0.0 | 1.6 | 0.20 | 0.56 | 0.56 | 92 | 1009.7 |
| 20260506031604 | 15 | 229 | 1.6 | 4.8 | 0.23 | 0.56 | 0.56 | 92 | 1009.7 |
| 20260506031104 | 15 | 17 | 0.0 | 3.2 | 0.23 | 0.53 | 0.53 | 92 | 1009.7 |
| 20260506030604 | 15 | 21 | 0.0 | 4.8 | 0.23 | 0.51 | 0.51 | 92 | 1009.7 |
| 20260506030104 | 15 | 22 | 0.0 | 0.0 | 0.23 | 0.48 | 0.48 | 92 | 1009.8 |
| 20260506025604 | 15 | 24 | 0.0 | 0.0 | 0.23 | 0.48 | 0.48 | 92 | 1009.9 |
| 20260506025104 | 15 | 24 | 0.0 | 0.0 | 0.23 | 0.46 | 0.46 | 92 | 1009.9 |
| 20260506024605 | 15 | 24 | 0.0 | 0.0 | 0.20 | 0.43 | 0.43 | 92 | 1009.9 |
| 20260506024104 | 15 | 24 | 0.0 | 0.0 | 0.20 | 0.41 | 0.41 | 92 | 1009.9 |
| 20260506023604 | 15 | 24 | 0.0 | 0.0 | 0.20 | 0.41 | 0.41 | 92 | 1010.0 |
| 20260506023105 | 15 | 24 | 0.0 | 0.0 | 0.18 | 0.38 | 0.38 | 92 | 1010.0 |
| 20260506022604 | 15 | 24 | 0.0 | 0.0 | 0.18 | 0.38 | 0.38 | 92 | 1009.9 |
| 20260506021604 | 15 | 347 | 0.0 | 0.0 | 0.13 | 0.33 | 0.33 | 92 | 1009.9 |
| 20260506021105 | 15 | 347 | 0.0 | 0.0 | 0.13 | 0.30 | 0.30 | 92 | 1009.9 |
| 20260506015604 | 15 | 347 | 0.0 | 0.0 | 0.08 | 0.25 | 0.25 | 92 | 1009.9 |
| 20260506015105 | 15 | 347 | 0.0 | 0.0 | 0.05 | 0.23 | 0.23 | 91 | 1009.7 |
| 20260506014604 | 15 | 347 | 0.0 | 0.0 | 0.05 | 0.23 | 0.23 | 91 | 1009.6 |
| 20260506014104 | 15 | 347 | 0.0 | 0.0 | 0.03 | 0.20 | 0.20 | 91 | 1009.7 |
| 20260506013604 | 15 | 347 | 0.0 | 0.0 | 0.03 | 0.20 | 0.20 | 91 | 1009.6 |
| 20260506013104 | 15 | 347 | 0.0 | 0.0 | 0.03 | 0.20 | 0.20 | 91 | 1009.6 |
| 20260506012605 | 15 | 347 | 0.0 | 0.0 | 0.03 | 0.20 | 0.20 | 91 | 1009.5 |
| 20260506012104 | 15 | 346 | 0.0 | 0.0 | 0.03 | 0.20 | 0.20 | 91 | 1009.6 |
| 20260506011605 | 15 | 346 | 0.0 | 1.6 | 0.03 | 0.20 | 0.20 | 91 | 1009.7 |
| 20260506010604 | 15 | 346 | 0.0 | 3.2 | 0.00 | 0.18 | 0.18 | 91 | 1009.7 |
| 20260506010104 | 15 | 346 | 0.0 | 1.6 | 0.00 | 0.18 | 0.18 | 91 | 1009.7 |
| 20260506005604 | 15 | 344 | 0.0 | 0.0 | 0.00 | 0.18 | 0.18 | 91 | 1009.8 |
| 20260506005104 | 15 | 344 | 0.0 | 0.0 | 0.00 | 0.18 | 0.18 | 91 | 1009.8 |
| 20260506004104 | 15 | 344 | 0.0 | 0.0 | 0.00 | 0.18 | 0.18 | 90 | 1009.7 |
| 20260506003604 | 15 | 344 | 0.0 | 0.0 | 0.03 | 0.18 | 0.18 | 90 | 1009.6 |
| 20260506003104 | 15 | 344 | 0.0 | 0.0 | 0.03 | 0.18 | 0.18 | 90 | 1009.6 |
| 20260506002604 | 15 | 344 | 0.0 | 0.0 | 0.03 | 0.18 | 0.18 | 90 | 1009.6 |
| 20260506001604 | 15 | 344 | 0.0 | 0.0 | 0.03 | 0.18 | 0.18 | 90 | 1009.6 |
| 20260506001104 | 15 | 344 | 0.0 | 0.0 | 0.03 | 0.18 | 0.18 | 90 | 1009.6 |
| 20260506000604 | 15 | 344 | 0.0 | 1.6 | 0.08 | 0.18 | 0.18 | 89 | 1009.7 |
| 20260505235604 | 15 | 339 | 0.0 | 3.2 | 0.15 | 0.18 | 0.18 | 89 | 1009.7 |
| 20260505234604 | 15 | 342 | 0.0 | 0.0 | 0.18 | 0.18 | 0.18 | 89 | 1009.7 |
| 20260505234104 | 15 | 342 | 0.0 | 1.6 | 0.18 | 0.18 | 0.18 | 89 | 1009.7 |
| 20260505233105 | 16 | 343 | 0.0 | 0.0 | 0.15 | 0.15 | 0.15 | 88 | 1009.9 |
| 20260505232604 | 16 | 343 | 0.0 | 3.2 | 0.15 | 0.15 | 0.15 | 88 | 1010.0 |
| 20260505232104 | 16 | 341 | 0.0 | 4.8 | 0.15 | 0.15 | 0.15 | 88 | 1010.0 |
| 20260505231604 | 16 | 190 | 1.6 | 4.8 | 0.15 | 0.15 | 0.15 | 87 | 1010.0 |
| 20260505231104 | 16 | 12 | 1.6 | 4.8 | 0.15 | 0.15 | 0.15 | 87 | 1009.9 |
| 20260505230604 | 16 | 279 | 1.6 | 4.8 | 0.10 | 0.10 | 0.10 | 86 | 1009.9 |
| 20260505230104 | 16 | 14 | 1.6 | 4.8 | 0.03 | 0.03 | 0.03 | 85 | 1009.8 |
| 20260505225105 | 17 | 355 | 1.6 | 8.0 | 0.03 | 0.03 | 0.03 | 84 | 1009.8 |
| 20260505224604 | 18 | 336 | 1.6 | 12.9 | 0.00 | 0.00 | 0.00 | 82 | 1009.8 |
| 20260505224104 | 19 | 248 | 4.8 | 8.0 | 0.00 | 0.00 | 0.00 | 78 | 1009.8 |
| 20260505223604 | 20 | 333 | 1.6 | 9.7 | 0.00 | 0.00 | 0.00 | 73 | 1009.7 |
| 20260505223104 | 21 | 300 | 4.8 | 9.7 | 0.00 | 0.00 | 0.00 | 67 | 1009.4 |
| 20260505222604 | 21 | 207 | 3.2 | 4.8 | 0.00 | 0.00 | 0.00 | 64 | 1009.2 |
| 20260505221604 | 21 | 166 | 4.8 | 12.9 | 0.00 | 0.00 | 0.00 | 61 | 1009.1 |
| 20260505221104 | 21 | 208 | 3.2 | 9.7 | 0.00 | 0.00 | 0.00 | 62 | 1009.1 |
| 20260505220605 | 21 | 195 | 4.8 | 14.5 | 0.00 | 0.00 | 0.00 | 61 | 1009.0 |
| 20260505215604 | 21 | 214 | 4.8 | 11.3 | 0.00 | 0.00 | 0.00 | 61 | 1009.0 |
| 20260505215106 | 22 | 209 | 3.2 | 9.7 | 0.00 | 0.00 | 0.00 | 61 | 1009.0 |
| 20260505214605 | 22 | 216 | 1.6 | 8.0 | 0.00 | 0.00 | 0.00 | 62 | 1009.0 |
| 20260505214106 | 22 | 216 | 4.8 | 11.3 | 0.00 | 0.00 | 0.00 | 61 | 1008.9 |
| 20260505213606 | 22 | 196 | 4.8 | 11.3 | 0.00 | 0.00 | 0.00 | 62 | 1008.9 |
| 20260505213106 | 22 | 206 | 4.8 | 11.3 | 0.00 | 0.00 | 0.00 | 62 | 1008.8 |
| 20260505212605 | 21 | 207 | 3.2 | 8.0 | 0.00 | 0.00 | 0.00 | 63 | 1008.9 |
| 20260505212105 | 21 | 211 | 1.6 | 8.0 | 0.00 | 0.00 | 0.00 | 64 | 1009.0 |
| 20260505211606 | 21 | 258 | 1.6 | 4.8 | 0.00 | 0.00 | 0.00 | 64 | 1008.9 |
| 20260505211105 | 21 | 206 | 1.6 | 4.8 | 0.00 | 0.00 | 0.00 | 63 | 1009.1 |
| 20260505210605 | 21 | 205 | 4.8 | 11.3 | 0.00 | 0.00 | 0.00 | 63 | 1009.1 |
| 20260505210107 | 21 | 216 | 4.8 | 9.7 | 0.00 | 0.00 | 0.00 | 63 | 1009.1 |
| 20260505205605 | 21 | 154 | 1.6 | 9.7 | 0.00 | 0.00 | 0.00 | 63 | 1009.1 |